• In Russia
  • List of Countries
  • For 7 days
  • Water Temperature
  • Satellite Maps
  • Weather Map
  • Weather Widgets
  • user-avatar
    Login

    Hourly Weather Kipungo

    Today, 24 February, Saturday

    Time Temperature Precipitation Wind Pressure Humidity
    00:00 +19°C° 0.4 mm 2 mps 652 mmHg 94%
    01:00 +19°C° 0 mm 2 mps 652 mmHg 95%
    02:00 +18°C° 0.3 mm 2 mps 651 mmHg 95%
    03:00 +18°C° 0.3 mm 2 mps 651 mmHg 95%
    04:00 +18°C° 0.3 mm 2 mps 651 mmHg 96%
    05:00 +18°C° 0 mm 2 mps 651 mmHg 95%
    06:00 +18°C° 0 mm 2 mps 651 mmHg 94%
    07:00 +19°C° 0 mm 2 mps 652 mmHg 92%
    08:00 +20°C° 0.1 mm 2 mps 652 mmHg 86%
    09:00 +21°C° 0.1 mm 2 mps 652 mmHg 81%
    10:00 +24°C° 0.1 mm 2 mps 653 mmHg 75%
    11:00 +25°C° 0.7 mm 2 mps 653 mmHg 70%
    12:00 +27°C° 0.7 mm 2 mps 653 mmHg 65%
    13:00 +29°C° 0 mm 1 mps 653 mmHg 62%
    14:00 +28°C° 1.8 mm 1 mps 652 mmHg 66%
    15:00 +27°C° 1.8 mm 1 mps 652 mmHg 71%
    16:00 +26°C° 1.8 mm 1 mps 651 mmHg 76%
    17:00 +25°C° 0.7 mm 1 mps 651 mmHg 80%
    18:00 +23°C° 0.7 mm 1 mps 651 mmHg 84%
    19:00 +21°C° 0.7 mm 2 mps 651 mmHg 88%
    20:00 +20°C° 0 mm 2 mps 651 mmHg 89%
    21:00 +21°C° 0 mm 1 mps 652 mmHg 90%
    22:00 +20°C° 0 mm 1 mps 652 mmHg 90%
    23:00 +20°C° 0.1 mm 1 mps 652 mmHg 91%

    Tomorrow, 25 February, Sunday

    Time Temperature Precipitation Wind Pressure Humidity
    00:00 +20°C° 0.1 mm 1 mps 652 mmHg 92%
    01:00 +20°C° 0.1 mm 1 mps 652 mmHg 93%
    02:00 +19°C° 0 mm 1 mps 652 mmHg 93%
    03:00 +19°C° 0 mm 1 mps 652 mmHg 94%
    04:00 +19°C° 0 mm 1 mps 652 mmHg 94%
    05:00 +19°C° 0 mm 1 mps 652 mmHg 93%
    06:00 +20°C° 0 mm 1 mps 652 mmHg 92%
    07:00 +20°C° 0 mm 1 mps 653 mmHg 91%
    08:00 +22°C° 0 mm 1 mps 653 mmHg 85%
    09:00 +23°C° 0 mm 2 mps 654 mmHg 80%
    10:00 +25°C° 0 mm 2 mps 654 mmHg 74%
    11:00 +26°C° 0 mm 2 mps 654 mmHg 66%
    12:00 +28°C° 0 mm 2 mps 654 mmHg 57%
    13:00 +29°C° 0 mm 2 mps 654 mmHg 49%
    14:00 +28°C° 0 mm 2 mps 653 mmHg 52%
    15:00 +28°C° 0 mm 2 mps 653 mmHg 55%
    16:00 +27°C° 0 mm 3 mps 652 mmHg 59%
    17:00 +25°C° 0.2 mm 2 mps 652 mmHg 65%
    18:00 +23°C° 0.2 mm 2 mps 652 mmHg 71%
    19:00 +20°C° 0.2 mm 2 mps 651 mmHg 77%
    20:00 +20°C° 0.1 mm 2 mps 652 mmHg 79%
    21:00 +19°C° 0.1 mm 2 mps 652 mmHg 81%
    22:00 +19°C° 0.1 mm 2 mps 653 mmHg 83%
    23:00 +18°C° 0 mm 2 mps 652 mmHg 84%

    Day after tomorrow, 26 February, Monday

    Time Temperature Precipitation Wind Pressure Humidity
    00:00 +18°C° 0 mm 2 mps 652 mmHg 85%
    01:00 +18°C° 0 mm 2 mps 652 mmHg 85%
    02:00 +19°C° 0 mm 1 mps 652 mmHg 87%
    03:00 +18°C° 0 mm 1 mps 651 mmHg 88%
    04:00 +18°C° 0 mm 1 mps 651 mmHg 90%
    05:00 +18°C° 0 mm 1 mps 651 mmHg 88%
    06:00 +19°C° 0 mm 1 mps 652 mmHg 87%
    07:00 +19°C° 0 mm 1 mps 652 mmHg 86%
    08:00 +22°C° 0 mm 1 mps 653 mmHg 75%
    09:00 +25°C° 0 mm 1 mps 654 mmHg 64%
    10:00 +26°C° 0 mm 0 mps 655 mmHg 53%
    11:00 +29°C° 0 mm 1 mps 655 mmHg 49%
    12:00 +30°C° 0 mm 1 mps 655 mmHg 45%
    13:00 +31°C° 0 mm 1 mps 654 mmHg 41%
    14:00 +30°C° 0.1 mm 1 mps 653 mmHg 45%
    15:00 +30°C° 0.1 mm 2 mps 653 mmHg 48%
    16:00 +29°C° 0.1 mm 2 mps 652 mmHg 51%
    17:00 +27°C° 0.2 mm 2 mps 652 mmHg 59%
    18:00 +25°C° 0.2 mm 2 mps 652 mmHg 67%
    19:00 +21°C° 0.2 mm 2 mps 652 mmHg 75%
    20:00 +21°C° 0 mm 2 mps 652 mmHg 79%
    21:00 +20°C° 0 mm 2 mps 652 mmHg 83%
    22:00 +19°C° 0 mm 2 mps 653 mmHg 86%
    23:00 +19°C° 0 mm 2 mps 653 mmHg 89%

    27 February, Tuesday

    Time Temperature Precipitation Wind Pressure Humidity
    00:00 +18°C° 0 mm 2 mps 652 mmHg 91%
    01:00 +19°C° 0 mm 1 mps 652 mmHg 94%
    02:00 +19°C° 0 mm 1 mps 652 mmHg 95%
    03:00 +18°C° 0 mm 1 mps 651 mmHg 95%
    04:00 +18°C° 0 mm 1 mps 651 mmHg 96%
    05:00 +18°C° 0 mm 1 mps 651 mmHg 93%
    06:00 +19°C° 0 mm 1 mps 652 mmHg 91%
    07:00 +19°C° 0 mm 1 mps 652 mmHg 88%
    08:00 +22°C° 0 mm 1 mps 653 mmHg 76%
    09:00 +25°C° 0 mm 1 mps 654 mmHg 64%
    10:00 +29°C° 0 mm 1 mps 655 mmHg 52%
    11:00 +29°C° 0 mm 1 mps 655 mmHg 47%
    12:00 +30°C° 0 mm 1 mps 654 mmHg 43%
    13:00 +31°C° 0 mm 1 mps 654 mmHg 38%
    14:00 +31°C° 0 mm 1 mps 653 mmHg 39%
    15:00 +31°C° 0 mm 1 mps 652 mmHg 40%
    16:00 +30°C° 0 mm 1 mps 652 mmHg 41%
    17:00 +28°C° 0.1 mm 1 mps 651 mmHg 47%
    18:00 +26°C° 0.1 mm 1 mps 651 mmHg 53%
    19:00 +24°C° 0.1 mm 1 mps 651 mmHg 59%
    20:00 +23°C° 0 mm 1 mps 652 mmHg 64%
    21:00 +21°C° 0 mm 2 mps 652 mmHg 69%
    22:00 +20°C° 0 mm 2 mps 653 mmHg 74%
    23:00 +20°C° 0.1 mm 2 mps 653 mmHg 78%

    28 February, Wednesday

    Time Temperature Precipitation Wind Pressure Humidity
    00:00 +19°C° 0.1 mm 2 mps 652 mmHg 81%
    01:00 +19°C° 0.1 mm 2 mps 652 mmHg 85%
    02:00 +18°C° 0 mm 2 mps 652 mmHg 86%
    03:00 +18°C° 0 mm 2 mps 652 mmHg 87%
    04:00 +19°C° 0 mm 1 mps 652 mmHg 88%
    05:00 +19°C° 0 mm 1 mps 652 mmHg 87%
    06:00 +19°C° 0 mm 1 mps 653 mmHg 87%
    07:00 +19°C° 0 mm 1 mps 653 mmHg 87%
    08:00 +22°C° 0 mm 1 mps 654 mmHg 73%
    09:00 +25°C° 0 mm 2 mps 654 mmHg 59%
    10:00 +28°C° 0 mm 2 mps 655 mmHg 45%
    11:00 +29°C° 0 mm 2 mps 655 mmHg 42%
    12:00 +30°C° 0 mm 2 mps 654 mmHg 38%
    13:00 +31°C° 0 mm 2 mps 654 mmHg 35%
    14:00 +31°C° 0 mm 2 mps 653 mmHg 35%
    15:00 +31°C° 0 mm 2 mps 653 mmHg 36%
    16:00 +31°C° 0 mm 2 mps 652 mmHg 37%
    17:00 +28°C° 0 mm 2 mps 652 mmHg 45%
    18:00 +26°C° 0 mm 2 mps 652 mmHg 53%
    19:00 +22°C° 0 mm 3 mps 652 mmHg 61%
    20:00 +21°C° 0 mm 3 mps 652 mmHg 69%
    21:00 +20°C° 0 mm 2 mps 653 mmHg 76%
    22:00 +19°C° 0 mm 2 mps 653 mmHg 84%
    23:00 +18°C° 0 mm 2 mps 653 mmHg 87%

    1 March, Thursday

    Time Temperature Precipitation Wind Pressure Humidity
    00:00 +18°C° 0 mm 2 mps 653 mmHg 90%
    01:00 +17°C° 0 mm 2 mps 652 mmHg 93%
    02:00 +17°C° 0 mm 2 mps 652 mmHg 93%
    03:00 +17°C° 0 mm 2 mps 652 mmHg 92%
    04:00 +17°C° 0 mm 2 mps 652 mmHg 92%
    05:00 +17°C° 0 mm 2 mps 652 mmHg 91%
    06:00 +17°C° 0 mm 2 mps 652 mmHg 90%
    07:00 +17°C° 0 mm 2 mps 653 mmHg 88%
    08:00 +21°C° 0 mm 1 mps 653 mmHg 73%
    09:00 +24°C° 0 mm 1 mps 654 mmHg 58%
    10:00 +27°C° 0 mm 1 mps 655 mmHg 43%
    11:00 +28°C° 0 mm 2 mps 655 mmHg 38%
    12:00 +30°C° 0 mm 2 mps 654 mmHg 34%
    13:00 +31°C° 0 mm 2 mps 654 mmHg 29%
    14:00 +31°C° 0 mm 2 mps 653 mmHg 31%
    15:00 +30°C° 0 mm 2 mps 652 mmHg 32%
    16:00 +30°C° 0 mm 3 mps 652 mmHg 33%
    17:00 +28°C° 0 mm 3 mps 652 mmHg 41%
    18:00 +25°C° 0 mm 2 mps 651 mmHg 48%
    19:00 +23°C° 0 mm 2 mps 651 mmHg 56%
    20:00 +21°C° 0 mm 2 mps 651 mmHg 57%
    21:00 +20°C° 0 mm 2 mps 652 mmHg 58%
    22:00 +19°C° 0 mm 3 mps 652 mmHg 59%
    23:00 +18°C° 0 mm 3 mps 652 mmHg 63%
    Show more